Location: Newark
(60.6561°N, 46.5772°E)
Time: 14:48:52
(UTC+00:00)

Tiros 1 despin weight - All Passes

Search period start: 21 October 2019 00:00
Search period end: 31 October 2019 00:00
Orbit: 593 x 643 km, 48.2° (Epoch: 21 October)

Date Brightness Start Highest point End Pass type
(mag) Time Alt. Az. Time Alt. Az. Time Alt. Az.
21 Oct - 00:44:34 10° SW 00:47:40 18° S 00:50:45 10° SE visible
21 Oct - 02:26:31 10° SW 02:27:57 11° SSW 02:29:22 10° S visible
21 Oct - 21:41:50 10° S 21:43:07 11° SSE 21:44:24 10° SE night (unlit)
21 Oct - 23:20:19 10° SW 23:23:23 17° S 23:26:28 10° SE visible
22 Oct - 01:00:58 10° SW 01:03:47 16° SSW 01:06:36 10° SSE visible
22 Oct - 21:56:43 10° SSW 21:59:09 14° SSE 22:01:37 10° SE night (unlit)
22 Oct - 23:36:23 10° SW 23:39:32 18° S 23:42:41 10° SE visible
23 Oct - 01:17:41 10° SW 01:19:53 13° SSW 01:22:03 10° S visible
23 Oct - 22:12:20 10° SSW 22:15:16 17° S 22:18:12 10° SE night (unlit)
23 Oct - 23:52:40 10° SW 23:55:40 17° S 23:58:41 10° SSE visible
24 Oct - 20:49:11 10° S 20:51:05 12° SSE 20:52:59 10° SE night (unlit)
24 Oct - 22:28:17 10° SW 22:31:24 18° S 22:34:32 10° SE night (unlit)
25 Oct - 00:09:10 10° SW 00:11:47 15° SSW 00:14:23 10° SSE visible
25 Oct - 21:04:29 10° SSW 21:07:10 15° SSE 21:09:51 10° SE night (unlit)
25 Oct - 22:44:26 10° SW 22:47:33 18° S 22:50:39 10° SE night (unlit)
26 Oct - 00:26:09 10° SW 00:27:51 12° SSW 00:29:32 10° S visible
26 Oct - 19:42:16 10° SSE 19:43:02 10° SSE 19:43:48 10° SE night (unlit)
26 Oct - 21:20:15 10° SSW 21:23:17 17° S 21:26:18 10° SE night (unlit)
26 Oct - 23:00:49 10° SW 23:03:40 16° SSW 23:06:33 10° SSE night (unlit)
27 Oct - 19:56:47 10° S 19:59:03 14° SSE 20:01:21 10° SE night (unlit)
27 Oct - 21:36:17 10° SW 21:39:25 18° S 21:42:33 10° SE night (unlit)
27 Oct - 23:17:27 10° SW 23:19:46 14° SSW 23:22:04 10° S night (unlit)
28 Oct - 20:12:19 10° SSW 20:15:09 16° SSE 20:18:00 10° SE night (unlit)
28 Oct - 21:52:32 10° SW 21:55:33 17° S 21:58:35 10° SSE night (unlit)
28 Oct - 23:35:02 10° SW 23:35:48 10° SSW 23:36:34 10° SSW night (unlit)
29 Oct - 18:49:22 10° S 18:50:59 12° SSE 18:52:36 10° SE night (unlit)
29 Oct - 20:28:12 10° SW 20:31:17 18° S 20:34:22 10° SE night (unlit)
29 Oct - 22:09:00 10° SW 22:11:40 15° SSW 22:14:20 10° SSE night (unlit)
30 Oct - 19:04:31 10° SSW 19:07:03 15° SSE 19:09:36 10° SE night (unlit)
30 Oct - 20:44:20 10° SW 20:47:25 18° S 20:50:31 10° SE night (unlit)
30 Oct - 22:25:52 10° SW 22:27:44 12° SSW 22:29:36 10° S night (unlit)
